sat.trackr.live / text

‹ back to catalog

STARLINK-3195

NORAD 49762 · 2021-115AQ

PAYLOAD ACTIVE UNKNOWN

§ Identity

Operator
Country
US
Launch date
2021-12-02
Launch site
AFETR
Launch vehicle
Mass (kg)
RCS (m²)

Purposes: comms

External: N2YO · Heavens-Above · Gunter

§ Orbital elements

Epoch: 2026-09-19T19:42:05.394528Z

Period
93.85 min
Inclination
53.1614°
Eccentricity
0.0001100
Mean motion
15.34384566 rev/d
Perigee alt
462.0 km
Apogee alt
463.5 km
Semi-major
6,840.9 km
B*
6.0202e-5
RAAN
332.5471°
Arg perigee
92.9669°
Mean anomaly
267.1460°
Rev number
26,519

§ Raw data

STARLINK-31951 49762U 21115AQ  26262.82089577  .00001657  00000+0  60202-4 0  99942 49762  53.1614 332.5471 0001100  92.9669 267.1460 15.34384566265192

JSON: /api/v1/satellites/49762 · /tle

For live sub-satellite position, see the globe view (requires WebGL).

§ Visibility from observer

Set your observer location to see the next 7 days of passes ≥ 10°. The values pass through the URL so the page stays shareable.

No JS? Fill the form by hand. The geolocation button needs JavaScript.